Location: Azul
(36.7830°S, 59.8500°W)
Time: 23:47:49
(UTC-03:00)

CUBEBUG 2 - Pass Details

Date: 01 November 2021
Orbit: 584 x 697 km, 97.7° (Epoch: 30 November)

Event Time Altitude Azimuth Distance (km) Brightness Sun altitude
Exits shadow 05:04:50 11° 272° (W) 1,957 ? -9.9°
Maximum altitude 05:04:58 11° 270° (W) 1,958 ? -9.9°
Drops below altitude 10° 05:05:52 10° 258° (WSW) 2,004 ? -9.7°
Sets 05:10:08 0° 218° (SW) 2,961 ? -8.9°
